Regional Weather Roundup
Issued by NWS

Home | Current Version | Previous Version | Text Only | Print | Product List | Glossary On
Versions: 1 2 3 4 5 6 7 8 9 10 11 12 13 14 15 16 17 18 19 20 21 22 23 24 25 26 27 28 29 30 31 32 33 34 35 36 37 38 39 40 41 42 43 44 45 46 47 48 49 50
000
ASUS43 KMPX 220910
RWRMN
WEATHER ROUNDUP FOR MINNESOTA
NATIONAL WEATHER SERVICE TWIN CITIES/CHANHASSEN MN
300 AM CST MON DEC 22 2014


NOTE: "FAIR" INDICATES FEW OR NO CLOUDS BELOW 12,000 FEET WITH NO
SIGNIFICANT WEATHER AND/OR OBSTRUCTIONS TO VISIBILITY. N/A MEANS
CURRENT SKY AND/OR WEATHER CONDITIONS ARE NOT AVAILABLE.

MNZ060>063-068>070-221000-
   Twin Cities Metro

CITY           SKY/WX    TMP DP  RH WIND       PRES   REMARKS
TWIN CITIES    CLOUDY    38  36  92 SE15      29.69F
ST PAUL        CLOUDY    37  36  96 SE14      29.71F FOG
CRYSTAL        CLOUDY    39  36  89 SE14      29.67F
BLAINE         CLOUDY    39  39 100 SE12G18   29.68F FOG
LAKEVILLE      CLOUDY    36  36 100 SE12G17   29.69S
EDEN PRAIRIE   CLOUDY    39  37  92 SE9       29.67S
SOUTH ST PAUL  CLOUDY    37  37  97 SE10      29.70F FOG
LAKE ELMO      LGT RAIN  37  36  93 S13       29.72S
$$
MNZ001>005-007-008-013>017-022>024-027-028-221000-
   Northwest Minnesota

CITY           SKY/WX    TMP DP  RH WIND       PRES   REMARKS
BEMIDJI        CLOUDY    33  33  99 SE9       29.59R FOG     WCI  25
HALLOCK        CLOUDY    34  32  93 CALM      29.57S
ROSEAU         CLOUDY    34  30  86 SE6       29.60S WCI  29
WARROAD        CLOUDY    34  30  86 SE3       29.62R
THIEF RVR FALL CLOUDY    34  34 100 E9        29.57S WCI  26
CROOKSTON      MOCLDY    36  34  93 SE8       29.56R FOG
FOSSTON        CLOUDY    32  32 100 CALM      29.56F FOG
DETROIT LAKES  CLOUDY    36  34  93 SE12      29.54S FOG
MOORHEAD       CLOUDY    37  37 100 SE12      29.52F FOG
PARK RAPIDS    CLOUDY    35  34  96 SE10      29.57S FOG     WCI  27
MAHNOMEN       CLOUDY    35  33  95 SE9       29.54S FOG     WCI  27
$$
MNZ006-009>011-018-025>026-221000-
   North Central Minnesota

CITY           SKY/WX    TMP DP  RH WIND       PRES   REMARKS
BAUDETTE       CLOUDY    33  31  92 SE6       29.62R WCI  28
FLAG ISLAND    CLOUDY    34  30  86 SE6       29.62S WCI  29
INTL FALLS     CLOUDY    33  31  92 SE7       29.65S FOG     WCI  27
WASKISH        LGT RAIN  34  34 100 CALM      29.61S
BIG FORK       LGT SNOW  34  32  93 SE5       29.64S WCI  30
LONGVILLE      CLOUDY    34  34 100 SE5       29.61S FOG     WCI  30
GRAND RAPIDS   CLOUDY    34  32  93 SE7       29.64S WCI  28
CRANE LAKE     CLOUDY    32  30  93 SE3       29.70S FOG
ORR            CLOUDY    34  30  86 SE6       29.64S FOG     WCI  29
COOK           CLOUDY    34  34 100 SE6       29.68S FOG     WCI  29
WALKER         CLOUDY    33  33  99 SE6       29.59F FOG     WCI  28
$$
MNZ012-019>021-037-221000-
   Northeast Minnesota

CITY           SKY/WX    TMP DP  RH WIND       PRES   REMARKS
DULUTH         LGT SNOW  33  32  96 SE7       29.69F VSB 1   WCI  27
ELY            CLOUDY    34  32  93 S7        29.70S WCI  28
HIBBING        LGT SNOW  33  31  92 SE8       29.67S FOG     WCI  26
EVELETH        LGT SNOW  32  32 100 SE5       29.70S WCI  27
DULUTH HARBOR  LGT RAIN  36  34  93 CALM      29.74F
TWO HARBORS    CLOUDY    37  32  81 SE3       29.71S
SILVER BAY     CLOUDY    36  34  93 CALM      29.72S FOG
GRAND MARAIS     N/A     38  35  89 S10       29.78S
G MARAIS ARPRT MIX PCPN  30  28  93 S5        29.74S VSB<1/4 WCI  25
$$
MNZ029>031-032-039>041-046>048-054>057-064-221000-
   West Central Minnesota

CITY           SKY/WX    TMP DP  RH WIND       PRES   REMARKS
FERGUS FALLS   CLOUDY    36  36 100 SE15      29.55S FOG
WHEATON        CLOUDY    34  32  93 SE12      29.52F FOG     WCI  25
MORRIS         CLOUDY    36  36 100 SE16      29.52F FOG
ALEXANDRIA     CLOUDY    36  35  96 SE14      29.56F FOG
ELBOW LAKE     CLOUDY    35  35  99 SE17G23   29.53S FOG     WCI  25
WADENA         DRIZZLE   34  34 100 SE10      29.56F WCI  26
GLENWOOD       CLOUDY    36  36 100 SE13      29.57S FOG
APPLETON       CLOUDY    37  36  93 SE10      29.53S
BENSON         CLOUDY    37  36  93 S9        29.55S FOG
ORTONVILLE     CLOUDY    36  34  93 SE14      29.50F FOG
MADISON        CLOUDY    39  37  93 SE12      29.52S FOG
WILLMAR        FOG       37  36  93 SE15      29.59S VSB 1
$$
MNZ033>034-036-042>043-049>051-058-059-221000-
   Central Minnesota

CITY           SKY/WX    TMP DP  RH WIND       PRES   REMARKS
ST CLOUD       CLOUDY    39  36  89 SE12      29.63F FOG
SAUK CENTRE    CLOUDY    35  35 100 SE13      29.58F FOG     WCI  26
PAYNESVILLE    CLOUDY    34  34 100 E10G16    29.60F FOG     WCI  26
AITKIN         CLOUDY    37  32  81 SE7       29.63S HAZE
PINE RIVER     CLOUDY    34  34 100 SE9       29.65S FOG     WCI  26
BRAINERD       CLOUDY    36  35  96 SE8       29.63S FOG
STAPLES        CLOUDY    34  34 100 SE8       29.59S FOG     WCI  27
LONG PRAIRIE   CLOUDY    34  34 100 SE12      29.59S FOG     WCI  25
LITTLE FALLS   CLOUDY    36  34  93 SE9       29.62F FOG
LITCHFIELD     CLOUDY    37  37 100 SE8       29.62F FOG
BUFFALO        CLOUDY    38  36  94 SE9       29.66F FOG
MAPLE LAKE     CLOUDY    38  38  98 SE9       29.65F FOG
$$
MNZ037-044-045-052-053-221000-
   East Central Minnesota

CITY           SKY/WX    TMP DP  RH WIND       PRES   REMARKS
PRINCETON      DRIZZLE   39  37  93 SE8       29.66F
MORA           CLOUDY    34  34 100 SE7       29.69F WCI  28
CAMBRIDGE      DRIZZLE   39  34  81 SE7       29.66F
RUSH CITY      CLOUDY    36  36  97 SE8       29.69F
MOOSE LAKE     CLOUDY    34  32  93 S5        29.67F FOG     WCI  30
HINCKLEY       CLOUDY    34  34 100 CALM      29.69S FOG
CLOQUET        CLOUDY    34  32  93 SE5       29.69F FOG     WCI  30
MCGREGOR       CLOUDY    34  34 100 SE7       29.66S WCI  28
$$
MNZ071>073-080-081-089-090-097-098-221000-
   Southwest Minnesota

CITY           SKY/WX    TMP DP  RH WIND       PRES   REMARKS
MONTEVIDEO     CLOUDY    37  37 100 S12       29.56S FOG
GRANITE FALLS  CLOUDY    37  37  98 SE14      29.57S FOG
CANBY          CLOUDY    38  37  94 SE8       29.51S
MARSHALL       CLOUDY    39  36  87 S12       29.54S
REDWOOD FALLS  CLOUDY    39  37  92 SE15      29.58F FOG
OLIVIA         CLOUDY    36  36 100 SE13      29.58F FOG
PIPESTONE      DRIZZLE   37  37 100 S10G16    29.51S
WINDOM         CLOUDY    39  39 100 S9        29.58S FOG
WORTHINGTON    CLOUDY    39 -11  11 S15       29.56S
JACKSON        CLOUDY    37  37 100 S12G21    29.59F FOG
TRACY          RAIN      39  38  97 S14       29.55S
SLAYTON        LGT RAIN  37  37 100 SE14      29.55S
$$
MNZ065>067-074>077-082>085-091>093-221000-
   South Central Minnesota

CITY           SKY/WX    TMP DP  RH WIND       PRES   REMARKS
MANKATO        CLOUDY    39  34  81 SE18      29.65S
NEW ULM        CLOUDY    39  39 100 S14G20    29.61S FOG
ST JAMES       CLOUDY    39  39 100 SE14      29.62F FOG
FAIRMONT       CLOUDY    39  36  87 SE16      29.62F
GLENCOE        CLOUDY    39  39 100 SE9       29.64S FOG
FARIBAULT      CLOUDY    37  37 100 SE16G22   29.68F
OWATONNA       CLOUDY    37  36  93 SE14G20   29.68F FOG
WASECA         CLOUDY    36  36 100 SE16G23   29.68S FOG
ALBERT LEA     FOG       37  37 100 S14G22    29.67F VSB 3/4
$$
MNZ078>079-086>088-094>096-221000-
   Southeast Minnesota

CITY           SKY/WX    TMP DP  RH WIND       PRES   REMARKS
ROCHESTER      CLOUDY    35  34  96 S16       29.72F FOG     WCI  25
RED WING       RAIN      37  36  93 S10G16    29.73F
STANTON        CLOUDY    38  35  89 SE15      29.69F
DODGE CENTER   LGT RAIN  36  36 100 S17G24    29.70F
WINONA         DRIZZLE   36  34  93 S7        29.78F
AUSTIN         CLOUDY    36  36 100 S9        29.70F FOG
PRESTON        CLOUDY    34  33  96 S16       29.75F FOG     WCI  24
$$
ABBREVIATIONS USED IN REMARKS
   TC - TEMPERATURES IN CELSIUS
  WCI - WIND CHILL INDEX
   HX - HEAT INDEX
  VSB - VISIBILITY
$$


USA.gov is the U.S. government's official web portal to all federal, state and local government web resources and services.